Weather in Tobol

Kazakhstan     52°41′37″N   62°35′41″E
temp.,
°C
wind,
m/s
gust,
m/s
humid.,
%
clouds,
%
prec.,
mm/h
press.,
hPa
HPBL,
m
12 april, mon
mon1223:00−1sse239765 0.0 103968
02:00−2s229413 0.0 103838
05:00−1ssw228726 0.0 103829
08:00+1sw22755 0.0 103767
11:00+6ssw22575 0.0 1037192
14:00+10s21555 0.0 1036289
17:00+10se106410 0.0 1035167
20:00+7ene116959 0.0 103610
13 april, tue
tue1323:00+6ne227418 0.0 103712
02:00+5ne469487 0.0 103897
05:00+6ne3897100 0.0 1039174
08:00+6ne49935 0.0 1040306
11:00+10ene57750 0.0 1040607
14:00+12ene56640 0.0 1040840
17:00+12e55610 0.0 1039753
20:00+8e35790 0.0 103869
14 april, wed
wed1423:00+6ese34860 0.0 103847
02:00+5ese33880 0.0 103731
05:00+4se22880 0.0 103710
08:00+6ese22813 0.0 103690
11:00+10ese23612 0.0 1035462
14:00+14e22475 0.0 1033712
17:00+15ese22425 0.0 1031678
20:00+11e225715 0.0 103011
15 april, thu
thu1523:00+9ese22645 0.0 103010
02:00+7ese11655 0.0 102910
05:00+6sw00645 0.0 102810
08:00+8nne11635 0.0 102838
11:00+12e11455 0.0 1026364
14:00+15nne11345 0.0 1024682
17:00+17ne12325 0.0 1022787
20:00+13ene00460 0.0 102110
16 april, fri
fri1623:00+11nne00514 0.0 101910
02:00+9ne11555 0.0 101810
05:00+8nne11590 0.0 101710
08:00+10ne12600 0.0 101662
11:00+14ne22495 0.0 1014470
14:00+17ne22435 0.0 10121028
17:00+18nne233926 0.0 10101338
20:00+14nnw225212 0.0 100911